Weather in Maleyevo

Russia / Smolensk Oblast     54°30′50″N   31°31′15″E
temp.,
°C
wind,
m/s
gust,
m/s
humid.,
%
clouds,
%
prec.,
mm/h
press.,
hPa
HPBL,
m
6 march, sat
sat600:00−7nw3788100 0.0 1018177
03:00−9nw348650 0.0 102059
06:00−10wnw33870 0.0 102056
09:00−8wnw24840 0.0 1021140
12:00−4wnw46690 0.0 10211006
15:00−3wnw576516 0.1 10201483
18:00−5w497864 0.1 1019245
21:00−7wsw5117930 0.1 1018233
7 march, sun
sun700:00−5wsw71477100 0.0 1015532
03:00−5sw81781100 0.0 1011671
06:00−4sw101887100 0.1 1005909
09:00−2wsw122092100 2.2 9991218
12:00−4nw121769100 1.3 10001575
15:00−3w9146166 1.3 10031758
18:00−4wsw615690 0.0 1002800
21:00−5wsw818690 0.0 1000749
8 march, mon
mon800:00−6wnw10178233 0.2 9991075
03:00−9wnw8167533 0.3 1003898
06:00−10wnw6148523 0.0 1005708
09:00−9nw6128658 0.0 1007788
12:00−6wnw7107567 0.0 10081143
15:00−5nw7107983 0.1 10101191
18:00−6nw51084100 0.1 1011754
21:00−9nw4993100 0.2 1014314
9 march, tue
tue900:00−10nnw4989100 0.1 1016605
03:00−12nnw389479 0.1 1018216
06:00−12nw499482 0.0 1020331
09:00−12nnw488965 0.0 1021392
12:00−8wnw47760 0.0 1021553
15:00−5w69779 0.0 1021813
18:00−5w5127528 0.0 1020467
21:00−7w6147422 0.0 1020371
10 march, wed
wed1000:00−7w6137784 0.0 1020351
03:00−8w5128190 0.0 1020302
06:00−8wsw5118798 0.0 1019290
09:00−7wsw5118499 0.0 1018372
12:00−4wsw5978100 0.0 1017600
15:00−2wsw587564 0.0 1015888
18:00−3sw388271 0.0 1014212
21:00−4sw5118157 0.0 1013274